Weather History for Panama City, FL

Change the Weather History Date:

Monday, November 26, 2012

  Actual Average Record
Temperature  
Mean Temperature 51 °F -  
Max Temperature 70 °F - 81 °F (2010)
Min Temperature 32 °F - 32 °F (2012)
Degree Days  
Heating Degree Days 14    
Cooling Degree Days 0    
Growing Degree Days 2 (Base 50)    
Moisture  
Dew Point 44 °F    
Average Humidity 69    
Maximum Humidity 89    
Minimum Humidity 49    
Precipitation  
Precipitation 0.00 in - 2.64 in (2013)
Month to date precipitation  
Year to date precipitation  
Sea Level Pressure  
Sea Level Pressure 30.21 in    
Wind  
Wind Speed 2 mph (ESE)    
Max Wind Speed 9 mph    
Max Gust Speed 13 mph    
Visibility 10 miles    
Events      
T = Trace of Precipitation, MM = Missing Value Source: NWS Daily Summary

Daily Weather History Graph

Daily Weather History Graph

Search for Another Location

Airport:

Trip Planner

Search our weather history database for the weather conditions in past years. The results will help you decide how hot, cold, wet, or windy it might be!

Date:

Astronomy

Nov. 26, 2012 Rise Set
Actual Time 7:18 AM EST 5:42 PM EST
Civil Twilight 6:52 AM EST 6:08 PM EST
Nautical Twilight 6:23 AM EST 6:38 PM EST
Astronomical Twilight 5:54 AM EST 7:06 PM EST
Moon 4:31 PM EST (11/26) 5:32 AM EST (11/26)
Length of Visible Light 11h 15m
Length of Day
10h 24m
Waxing Gibbous, 97% of the Moon is Illuminated
Nov 26
Waxing Gibbous
Nov 28
Full
Dec 6
Last Quarter
Dec 13
New
Dec 20
First Quarter

Hourly Weather History & Observations

Time (EST) Temp. Windchill Dew Point Humidity Pressure Visibility Wind Dir Wind Speed Gust Speed Precip Events Conditions
12:53 AM 35.1 °F - 32.0 °F 89% 30.19 in 10.0 mi Calm Calm - N/A   Clear
1:53 AM 35.1 °F - 30.9 °F 85% 30.18 in 10.0 mi Calm Calm - N/A   Clear
2:53 AM 33.1 °F - 28.9 °F 85% 30.18 in 10.0 mi Calm Calm - N/A   Clear
3:53 AM 33.1 °F - 30.0 °F 89% 30.19 in 10.0 mi Calm Calm - N/A   Clear
4:53 AM 33.1 °F - 30.0 °F 89% 30.19 in 10.0 mi Calm Calm - N/A   Clear
5:53 AM 35.1 °F - 32.0 °F 89% 30.20 in 10.0 mi Calm Calm - N/A   Clear
6:53 AM 37.0 °F 33.3 °F 33.1 °F 86% 30.22 in 10.0 mi NNE 4.6 mph - N/A   Clear
7:53 AM 39.9 °F 37.8 °F 35.1 °F 83% 30.23 in 10.0 mi NNE 3.5 mph - N/A   Clear
8:53 AM 48.0 °F - 37.9 °F 68% 30.25 in 10.0 mi NE 4.6 mph - N/A   Clear
9:53 AM 55.9 °F - 41.0 °F 57% 30.27 in 10.0 mi East 5.8 mph - N/A   Clear
10:53 AM 63.0 °F - 46.0 °F 54% 30.27 in 10.0 mi ENE 5.8 mph - N/A   Clear
11:53 AM 66.0 °F - 48.9 °F 54% 30.24 in 10.0 mi ENE 8.1 mph - N/A   Clear
12:53 PM 68.0 °F - 48.9 °F 50% 30.22 in 10.0 mi SE 4.6 mph - N/A   Clear
1:53 PM 70.0 °F - 51.1 °F 51% 30.20 in 10.0 mi South 6.9 mph - N/A   Partly Cloudy
2:53 PM 68.0 °F - 51.1 °F 55% 30.19 in 10.0 mi SSE 4.6 mph - N/A   Clear
3:53 PM 68.0 °F - 52.0 °F 56% 30.19 in 10.0 mi SE 6.9 mph - N/A   Clear
4:53 PM 66.9 °F - 53.1 °F 61% 30.19 in 10.0 mi SE 4.6 mph - N/A   Clear
5:53 PM 62.1 °F - 52.0 °F 70% 30.19 in 10.0 mi SE 5.8 mph - N/A   Clear
6:53 PM 61.0 °F - 52.0 °F 72% 30.20 in 10.0 mi SE 4.6 mph - N/A   Clear
7:53 PM 60.1 °F - 53.1 °F 78% 30.20 in 10.0 mi ESE 5.8 mph - N/A   Scattered Clouds
8:53 PM 60.1 °F - 52.0 °F 75% 30.21 in 10.0 mi Calm Calm - N/A   Scattered Clouds
9:53 PM 60.1 °F - 54.0 °F 80% 30.22 in 10.0 mi Calm Calm - N/A   Mostly Cloudy
10:53 PM 59.0 °F - 53.1 °F 81% 30.21 in 10.0 mi East 3.5 mph - N/A   Clear
11:53 PM 57.0 °F - 52.0 °F 83% 30.21 in 10.0 mi East 3.5 mph - N/A   Partly Cloudy